Location: ???????
(55.4362°N, 38.1183°E)
Time: 08:24:45
(UTC+00:00)

Cosmos 372 Rocket - Pass Details

Date: 22 October 2021
Orbit: 738 x 768 km, 74.1° (Epoch: 28 November)

Event Time Altitude Azimuth Distance (km) Brightness Sun altitude
Rises 15:51:39 0° 250° (WSW) 3,175 8.6 -14.9°
Reaches altitude 10° 15:54:25 10° 264° (W) 2,253 7.8 -15.3°
Maximum altitude 15:58:34 25° 319° (NW) 1,482 6.0 -15.9°
Drops below altitude 10° 16:02:46 10° 14° (NNE) 2,261 6.3 -16.5°
Sets 16:05:32 0° 28° (NNE) 3,189 7.0 -16.9°
